Baton Rouge, LA

8:50 PM CDT on October 21, 2019 (GMT -0500)
Baton Rouge Metro-Ryan

Weather History for KBTR - August, 2019

Change the Weather History Date:

Tuesday, August 20, 2019

  Actual Average Record
Temperature  
Mean Temperature 84 °F 83 °F  
Max Temperature 93 °F 93 °F 108 °F (1909)
Min Temperature 75 °F 74 °F 64 °F (1927)
Degree Days  
Heating Degree Days 0 0  
Month to date heating degree days 0 0  
Since 1 June heating degree days 0 0  
Since 1 July heating degree days 0 0  
Cooling Degree Days 19 18  
Month to date cooling degree days 408 360  
Year to date cooling degree days 2142 1965  
Since 1 June cooling degree days 1471 1400  
Growing Degree Days 33 (Base 50)    
Moisture  
Dew Point 74 °F    
Average Humidity 73    
Maximum Humidity 94    
Minimum Humidity 52    
Precipitation  
Precipitation 0.00 in 0.19 in 1.61 in (1997)
Month to date precipitation 2.74 3.86  
Year to date precipitation 44.16 39.75  
Snow  
Snow 0.00 in - - ()
Month to date snowfall 0.0  
Since 1 June snowfall 0.0  
Since 1 July snowfall 0.0  
Snow Depth 0.00 in    
Sea Level Pressure  
Sea Level Pressure 30.03 in    
Wind  
Wind Speed 4 mph (East)    
Max Wind Speed 12 mph    
Max Gust Speed 14 mph    
Visibility 5 miles    
Events Fog    
T = Trace of Precipitation, MM = Missing Value Source: NWS Daily Summary

Daily Weather History Graph

Daily Weather History Graph

Search for Another Location

Airport or City:

Astronomy

Aug. 20, 2019 Rise Set
Actual Time 6:34 AM CDT 7:41 PM CDT
Civil Twilight 6:09 AM CDT 8:06 PM CDT
Nautical Twilight 5:39 AM CDT 8:36 PM CDT
Astronomical Twilight 5:08 AM CDT 9:06 PM CDT
Moon 10:49 PM CDT (8/20) 10:54 AM CDT (8/20)
Length of Visible Light 13h 57m
Length of Day
13h 07m
Waning Gibbous, 77% of the Moon is Illuminated
Aug 20
Waning Gibbous
Aug 23
Last Quarter
Aug 30
New
Sep 5
First Quarter
Sep 13
Full

Hourly Weather History & Observations

Time (CDT) Temp. Heat Index Dew Point Humidity Pressure Visibility Wind Dir Wind Speed Gust Speed Precip Events Conditions
12:00 AM 77.0 °F - 75.0 °F 94% 30.03 in 7.0 mi ENE 5.8 mph - N/A   Overcast
12:08 AM 77.0 °F - 75.0 °F 94% 30.03 in 7.0 mi NE 3.5 mph - N/A   Overcast
1:06 AM 77.0 °F - 75.0 °F 94% 30.03 in 7.0 mi ESE 3.5 mph - N/A   Overcast
1:12 AM 75.9 °F - 73.9 °F 94% 30.03 in 7.0 mi ESE 4.6 mph - N/A   Overcast
2:00 AM 75.9 °F - 73.9 °F 94% 30.02 in 6.0 mi Calm Calm - N/A   Scattered Clouds
2:09 AM 75.9 °F - 73.9 °F 94% 30.02 in 6.0 mi Calm Calm - N/A   Mostly Cloudy
2:37 AM 75.9 °F - 73.9 °F 94% 30.02 in 1.8 mi East 5.8 mph - N/A   Overcast
2:51 AM 75.2 °F - 73.4 °F 94% 30.02 in 0.5 mi ESE 8.1 mph - N/A Fog Fog
3:14 AM 75.9 °F - 73.9 °F 94% 30.02 in 3.0 mi ENE 3.5 mph - N/A   Overcast
3:40 AM 75.9 °F - 73.9 °F 94% 30.02 in 2.5 mi Calm Calm - N/A   Overcast
3:53 AM 75.9 °F - 73.9 °F 94% 30.02 in 2.5 mi Calm Calm - N/A   Overcast
4:16 AM 75.9 °F - 73.9 °F 94% 30.02 in 1.2 mi Calm Calm - N/A   Overcast
4:28 AM 75.9 °F - 73.9 °F 94% 30.02 in 0.8 mi East 4.6 mph - N/A   Mist
4:43 AM 75.0 °F - 73.9 °F 96% 30.03 in 0.2 mi East 5.8 mph - N/A Fog Fog
4:53 AM 75.0 °F - 73.9 °F 96% 30.03 in 0.2 mi East 6.9 mph - N/A Fog Fog
5:00 AM 75.0 °F - 73.9 °F 96% 30.03 in 0.5 mi East 4.6 mph - N/A Fog Fog
5:53 AM 75.0 °F - 73.9 °F 96% 30.04 in 0.8 mi East 3.5 mph - N/A   Mist
6:53 AM 75.9 °F - 73.9 °F 94% 30.05 in 0.5 mi Calm Calm - N/A Fog Fog
7:53 AM 75.9 °F - 73.9 °F 94% 30.06 in 0.5 mi NE 3.5 mph - N/A Fog Fog
8:01 AM 75.9 °F - 75.0 °F 97% 30.07 in 0.2 mi ENE 4.6 mph - N/A Fog Fog
8:32 AM 75.9 °F - 75.0 °F 97% 30.07 in 1.0 mi ENE 5.8 mph - N/A   Overcast
8:53 AM 77.0 °F - 75.0 °F 94% 30.07 in 1.5 mi ENE 4.6 mph - N/A   Overcast
9:18 AM 77.0 °F - 75.0 °F 94% 30.06 in 2.0 mi Calm Calm - N/A   Overcast
9:33 AM 78.1 °F - 75.9 °F 93% 30.06 in 3.0 mi Calm Calm - N/A   Overcast
9:53 AM 80.1 °F 85.4 °F 75.9 °F 87% 30.07 in 4.0 mi Calm Calm - N/A   Overcast
10:53 AM 86.0 °F 96.0 °F 75.9 °F 72% 30.06 in 7.0 mi North 3.5 mph - N/A   Scattered Clouds
11:53 AM 87.1 °F 96.3 °F 75.0 °F 67% 30.06 in 8.0 mi Variable 3.5 mph - N/A   Scattered Clouds
12:53 PM 89.1 °F 98.0 °F 73.9 °F 61% 30.05 in 10.0 mi Variable 3.5 mph - N/A   Mostly Cloudy
1:53 PM 91.0 °F 99.3 °F 73.0 °F 55% 30.04 in 10.0 mi North 6.9 mph - N/A   Partly Cloudy
2:53 PM 91.9 °F 100.7 °F 73.0 °F 54% 30.02 in 10.0 mi ENE 8.1 mph - N/A   Mostly Cloudy
3:53 PM 91.9 °F 98.4 °F 71.1 °F 50% 30.01 in 10.0 mi East 3.5 mph - N/A   Scattered Clouds
4:53 PM 91.9 °F 101.3 °F 73.9 °F 55% 29.99 in 10.0 mi East 9.2 mph - N/A   Scattered Clouds
5:53 PM 90.0 °F 97.9 °F 73.0 °F 57% 29.99 in 10.0 mi ESE 5.8 mph - N/A   Partly Cloudy
6:53 PM 86.0 °F 95.1 °F 75.0 °F 70% 29.99 in 10.0 mi SSW 5.8 mph - N/A   Mostly Cloudy
7:53 PM 84.9 °F 95.3 °F 77.0 °F 77% 30.01 in 10.0 mi Calm Calm - N/A   Scattered Clouds
8:53 PM 82.9 °F 90.2 °F 75.0 °F 77% 30.02 in 10.0 mi SSE 6.9 mph - N/A   Scattered Clouds
9:53 PM 82.0 °F 88.6 °F 75.0 °F 79% 30.04 in 10.0 mi East 3.5 mph - N/A   Mostly Cloudy
10:53 PM 81.0 °F 87.3 °F 75.9 °F 85% 30.06 in 10.0 mi Calm Calm - N/A   Clear
11:53 PM 80.1 °F 85.1 °F 75.0 °F 85% 30.06 in 10.0 mi SSE 4.6 mph - N/A   Scattered Clouds